This demonstration page uses our WeatherBlox Daily Observations layout. Learn more.

36.17497, -115.13722

Hourly Observations for June 14, 2015

Temp ( °F °C ) Dew Point ( °F °C ) Humidity (%) Winds ( mph kmh ) Pressure ( in mb ) Visibility ( mi km ) Precip ( " mm )
12:53 am 00:53 Clear 87 30.6 46 7.8 24 24 ENE 9 15 29.69 1005 10 16.0934 0 0
1:53 am 01:53 Clear 87 30.6 45 7.2 23 23 Calm 29.7 1006 10 16.0934 0 0
2:53 am 02:53 Clear 85 29.4 47 8.3 27 27 SW 6 9 29.68 1005 10 16.0934 0 0
3:53 am 03:53 Clear 83 28.3 48 8.9 30 30 SW 7 11 29.67 1005 10 16.0934 0 0
4:53 am 04:53 Clear 82 27.8 48 8.9 31 31 SSW 3 6 29.68 1005 10 16.0934 0 0
5:53 am 05:53 Sunny 81 27.2 47 8.3 30 30 Calm 29.69 1006 10 16.0934 0 0
6:53 am 06:53 Sunny 83 28.3 48 8.9 30 30 E 3 6 29.7 1006 10 16.0934 0 0
7:53 am 07:53 Sunny 85 29.4 47 8.3 27 27 ESE 5 7 29.72 1007 10 16.0934 0 0
8:53 am 08:53 Sunny 88 31.1 46 7.8 23 23 SE 5 7 29.74 1007 10 16.0934 0 0
9:53 am 09:53 Sunny 92 33.3 45 7.2 20 20 E 7 11 29.73 1007 10 16.0934 0 0
10:53 am 10:53 Sunny 94 34.4 45 7.2 18 18 VRB 5 7 29.73 1007 10 16.0934 0 0
11:53 am 11:53 Sunny 96 35.6 44 6.7 17 17 undefined N/A 29.71 1006 10 16.0934 0 0
12:53 pm 12:53 Sunny 100 37.8 43 6.1 14 14 ENE 7 11 29.69 1005 10 16.0934 0 0
1:53 pm 13:53 Sunny 103 39.4 42 5.6 12 12 ESE 9 15 29.65 1004 10 16.0934 0 0
2:53 pm 14:53 Sunny 102 38.9 41 5 12 12 ENE 7 11 29.63 1003 10 16.0934 0 0
3:33 pm 15:33 Partly Cloudy 98 36.7 46 7.8 17 17 WSW 18 30 29.5 999 10 16.0934 0 0
3:41 pm 15:41 Mostly Cloudy with Light Rain 93 33.9 53 11.7 26 26 S 37 59 29.5 999 10 16.0934 0 0.0254
3:49 pm 15:49 Mostly Cloudy with Light Rain 88 31 57 14 35 35 SE 20 31 29.53 1000 10 16.0934 0 0.0254
3:53 pm 15:53 Mostly Cloudy with Light Rain 89 31.7 54 12.2 30 30 ESE 18 30 29.67 1005 10 16.0934 0 0.0254
4:00 pm 16:00 Mostly Cloudy with Light Rain 91 32.8 52 11.1 26 26 ESE 18 30 29.53 1000 10 16.0934 0 0.0254
4:53 pm 16:53 Sunny 96 35.6 46 7.8 18 18 SE 15 24 29.63 1003 10 16.0934 0 0.0254
5:53 pm 17:53 Sunny 99 37.2 39 3.9 12 12 SE 14 22 29.62 1003 10 16.0934 0 0
6:53 pm 18:53 Sunny 99 37.2 38 3.3 12 12 S 6 9 29.62 1003 10 16.0934 0 0
7:53 pm 19:53 Sunny 99 37.2 38 3.3 12 12 Calm 29.63 1003 10 16.0934 0 0
8:53 pm 20:53 Clear 96 35.6 40 4.4 14 14 Calm 29.64 1004 10 16.0934 0 0
9:53 pm 21:53 Clear 93 33.9 44 6.7 18 18 NW 5 7 29.66 1005 10 16.0934 0 0
10:53 pm 22:53 Clear 90 32.2 46 7.8 22 22 W 7 11 29.67 1005 10 16.0934 0 0
11:53 pm 23:53 Clear 88 31.1 45 7.2 22 22 NW 6 9 29.67 1005 10 16.0934 0 0

Powered by AerisWeather